When you browse on this site, cookies collect data to enhance your experience and personalize the content and advertising you see.
Visit our Privacy Policy to learn more. By continuing to use the site, you agree to this use of cookies and data.
  • In Hungary
  • List of Countries
  • For 7 days
  • Water Temperature
  • Satellite Maps
  • Weather Map
  • News
  • Weather Widgets
  • user-avatar
    Login

    Hourly Weather Zernovoy

    Today, 17 November, Saturday

    Time Temperature Precipitation Wind Pressure Humidity
    00:00 -3°C° 0 mm 1 mps 772 mmHg 31%
    01:00 -3°C° 0 mm 1 mps 772 mmHg 32%
    02:00 -3°C° 0 mm 1 mps 771 mmHg 32%
    03:00 -3°C° 0 mm 1 mps 771 mmHg 32%
    04:00 -3°C° 0 mm 1 mps 771 mmHg 32%
    05:00 -4°C° 0 mm 1 mps 770 mmHg 32%
    06:00 -6°C° 0 mm 2 mps 770 mmHg 31%
    07:00 -6°C° 0 mm 2 mps 770 mmHg 31%
    08:00 -5°C° 0 mm 2 mps 769 mmHg 28%
    09:00 -4°C° 0 mm 2 mps 769 mmHg 26%
    10:00 -3°C° 0 mm 2 mps 769 mmHg 24%
    11:00 -2°C° 0 mm 2 mps 768 mmHg 22%
    12:00 -1°C° 0 mm 3 mps 767 mmHg 20%
    13:00 0°C° 0 mm 3 mps 767 mmHg 19%
    14:00 -1°C° 0 mm 3 mps 766 mmHg 20%
    15:00 -1°C° 0 mm 3 mps 766 mmHg 22%
    16:00 -1°C° 0 mm 3 mps 765 mmHg 24%
    17:00 -2°C° 0 mm 3 mps 765 mmHg 25%
    18:00 -4°C° 0 mm 3 mps 765 mmHg 26%
    19:00 -4°C° 0 mm 3 mps 764 mmHg 28%
    20:00 -4°C° 0 mm 3 mps 764 mmHg 28%
    21:00 -4°C° 0 mm 3 mps 763 mmHg 28%
    22:00 -4°C° 0 mm 3 mps 763 mmHg 29%
    23:00 -4°C° 0 mm 3 mps 763 mmHg 29%

    Tomorrow, 18 November, Sunday

    Time Temperature Precipitation Wind Pressure Humidity
    00:00 -4°C° 0 mm 3 mps 762 mmHg 29%
    01:00 -4°C° 0 mm 3 mps 762 mmHg 29%
    02:00 -5°C° 0 mm 3 mps 762 mmHg 28%
    03:00 -5°C° 0 mm 3 mps 761 mmHg 28%
    04:00 -5°C° 0 mm 3 mps 761 mmHg 28%
    05:00 -5°C° 0 mm 3 mps 761 mmHg 28%
    06:00 -5°C° 0 mm 3 mps 760 mmHg 28%
    07:00 -5°C° 0 mm 3 mps 760 mmHg 27%
    08:00 -4°C° 0 mm 3 mps 760 mmHg 26%
    09:00 -4°C° 0 mm 3 mps 760 mmHg 25%
    10:00 -3°C° 0 mm 4 mps 760 mmHg 24%
    11:00 -2°C° 0 mm 4 mps 760 mmHg 23%
    12:00 -1°C° 0 mm 4 mps 760 mmHg 22%
    13:00 +1°C° 0 mm 3 mps 760 mmHg 21%
    14:00 0°C° 0 mm 3 mps 760 mmHg 23%
    15:00 -1°C° 0 mm 3 mps 760 mmHg 25%
    16:00 -1°C° 0 mm 2 mps 760 mmHg 27%
    17:00 -2°C° 0 mm 2 mps 760 mmHg 27%
    18:00 -2°C° 0 mm 2 mps 760 mmHg 28%
    19:00 -3°C° 0 mm 2 mps 760 mmHg 28%
    20:00 -3°C° 0 mm 2 mps 760 mmHg 28%
    21:00 -4°C° 0 mm 2 mps 760 mmHg 28%
    22:00 -2°C° 0 mm 1 mps 760 mmHg 27%
    23:00 -2°C° 0 mm 1 mps 761 mmHg 27%

    Day after tomorrow, 19 November, Monday

    Time Temperature Precipitation Wind Pressure Humidity
    00:00 -2°C° 0 mm 1 mps 761 mmHg 27%
    01:00 -2°C° 0 mm 1 mps 761 mmHg 27%
    02:00 -2°C° 0 mm 1 mps 761 mmHg 27%
    03:00 -3°C° 0 mm 0 mps 761 mmHg 27%
    04:00 -3°C° 0 mm 0 mps 762 mmHg 26%
    05:00 -4°C° 0 mm 0 mps 762 mmHg 26%
    06:00 -4°C° 0 mm 0 mps 762 mmHg 27%
    07:00 -4°C° 0 mm 0 mps 762 mmHg 27%
    08:00 -3°C° 0 mm 0 mps 763 mmHg 25%
    09:00 -2°C° 0 mm 0 mps 763 mmHg 24%
    10:00 -2°C° 0 mm 0 mps 763 mmHg 23%
    11:00 -1°C° 0 mm 0 mps 764 mmHg 21%
    12:00 +1°C° 0 mm 1 mps 764 mmHg 20%
    13:00 +2°C° 0 mm 1 mps 764 mmHg 19%
    14:00 +2°C° 0 mm 1 mps 764 mmHg 21%
    15:00 +1°C° 0 mm 1 mps 764 mmHg 23%
    16:00 0°C° 0 mm 1 mps 765 mmHg 25%
    17:00 0°C° 0 mm 1 mps 765 mmHg 26%
    18:00 -3°C° 0 mm 2 mps 765 mmHg 27%
    19:00 -3°C° 0 mm 2 mps 765 mmHg 29%
    20:00 -4°C° 0 mm 2 mps 765 mmHg 29%
    21:00 -4°C° 0 mm 2 mps 765 mmHg 30%
    22:00 -4°C° 0 mm 2 mps 765 mmHg 31%
    23:00 -4°C° 0 mm 2 mps 765 mmHg 32%

    20 November, Tuesday

    Time Temperature Precipitation Wind Pressure Humidity
    00:00 -4°C° 0 mm 2 mps 766 mmHg 32%
    01:00 -5°C° 0 mm 2 mps 766 mmHg 33%
    02:00 -5°C° 0 mm 2 mps 766 mmHg 34%
    03:00 -5°C° 0 mm 2 mps 766 mmHg 36%
    04:00 -5°C° 0 mm 2 mps 766 mmHg 37%
    05:00 -5°C° 0 mm 2 mps 766 mmHg 41%
    06:00 -5°C° 0 mm 2 mps 766 mmHg 44%
    07:00 -6°C° 0 mm 2 mps 766 mmHg 48%
    08:00 -5°C° 0 mm 2 mps 766 mmHg 49%
    09:00 -4°C° 0 mm 2 mps 766 mmHg 51%
    10:00 -4°C° 0 mm 2 mps 766 mmHg 53%
    11:00 -3°C° 0 mm 2 mps 766 mmHg 54%
    12:00 -2°C° 0 mm 2 mps 766 mmHg 55%
    13:00 +1°C° 0 mm 1 mps 766 mmHg 56%
    14:00 +1°C° 0 mm 1 mps 766 mmHg 59%
    15:00 +1°C° 0 mm 1 mps 766 mmHg 63%
    16:00 0°C° 0 mm 1 mps 766 mmHg 67%
    17:00 0°C° 0 mm 1 mps 766 mmHg 70%
    18:00 -1°C° 0 mm 1 mps 766 mmHg 73%
    19:00 -1°C° 0 mm 1 mps 766 mmHg 76%
    20:00 -2°C° 0 mm 1 mps 766 mmHg 78%
    21:00 -3°C° 0 mm 0 mps 766 mmHg 79%
    22:00 -3°C° 0 mm 0 mps 765 mmHg 81%
    23:00 -3°C° 0 mm 0 mps 765 mmHg 81%

    21 November, Wednesday

    Time Temperature Precipitation Wind Pressure Humidity
    00:00 -3°C° 0 mm 0 mps 765 mmHg 82%
    01:00 -3°C° 0 mm 0 mps 765 mmHg 82%
    02:00 -2°C° 0 mm 1 mps 765 mmHg 83%
    03:00 -2°C° 0 mm 1 mps 765 mmHg 83%
    04:00 -2°C° 0 mm 1 mps 764 mmHg 83%
    05:00 -2°C° 0 mm 1 mps 764 mmHg 82%
    06:00 -2°C° 0 mm 1 mps 764 mmHg 80%
    07:00 -2°C° 0 mm 1 mps 764 mmHg 79%
    08:00 -2°C° 0 mm 1 mps 763 mmHg 76%
    09:00 -1°C° 0 mm 1 mps 763 mmHg 74%
    10:00 -1°C° 0 mm 1 mps 763 mmHg 71%
    11:00 0°C° 0 mm 1 mps 763 mmHg 68%
    12:00 0°C° 0 mm 1 mps 763 mmHg 65%
    13:00 +1°C° 0 mm 1 mps 762 mmHg 62%
    14:00 +1°C° 0 mm 1 mps 762 mmHg 63%
    15:00 0°C° 0 mm 1 mps 761 mmHg 64%
    16:00 0°C° 0 mm 1 mps 761 mmHg 65%
    17:00 0°C° 0 mm 1 mps 761 mmHg 67%
    18:00 0°C° 0 mm 1 mps 760 mmHg 68%
    19:00 -1°C° 0 mm 1 mps 760 mmHg 69%
    20:00 -1°C° 0 mm 1 mps 760 mmHg 68%
    21:00 -1°C° 0 mm 1 mps 760 mmHg 67%
    22:00 -2°C° 0 mm 0 mps 759 mmHg 67%
    23:00 -2°C° 0 mm 0 mps 759 mmHg 66%

    22 November, Thursday

    Time Temperature Precipitation Wind Pressure Humidity
    00:00 -2°C° 0 mm 0 mps 758 mmHg 64%
    01:00 -2°C° 0 mm 0 mps 758 mmHg 63%
    02:00 -2°C° 0 mm 0 mps 758 mmHg 65%
    03:00 -2°C° 0 mm 0 mps 757 mmHg 67%
    04:00 -2°C° 0 mm 0 mps 757 mmHg 69%
    05:00 -2°C° 0 mm 0 mps 757 mmHg 71%
    06:00 -2°C° 0 mm 0 mps 756 mmHg 73%
    07:00 -2°C° 0 mm 0 mps 756 mmHg 75%
    08:00 -1°C° 0 mm 1 mps 756 mmHg 74%
    09:00 -1°C° 0 mm 1 mps 756 mmHg 73%
    10:00 -1°C° 0 mm 1 mps 756 mmHg 72%
    11:00 0°C° 0 mm 1 mps 756 mmHg 68%
    12:00 -1°C° 0 mm 2 mps 756 mmHg 64%
    13:00 -1°C° 0 mm 2 mps 755 mmHg 61%
    14:00 -1°C° 0 mm 3 mps 755 mmHg 64%
    15:00 -2°C° 0 mm 3 mps 755 mmHg 67%
    16:00 -2°C° 0 mm 3 mps 755 mmHg 69%
    17:00 -4°C° 0 mm 3 mps 755 mmHg 72%
    18:00 -5°C° 0 mm 3 mps 755 mmHg 74%
    19:00 -5°C° 0 mm 4 mps 755 mmHg 77%
    20:00 -6°C° 0 mm 3 mps 755 mmHg 76%
    21:00 -6°C° 0 mm 3 mps 756 mmHg 75%
    22:00 -6°C° 0 mm 3 mps 756 mmHg 73%
    23:00 -7°C° 0 mm 3 mps 756 mmHg 73%
    Show more